Regional Weather Roundup
Issued by NWS State College, PA

Home | Current Version | Previous Version | Text Only | Print | Product List | Glossary On
Versions: 1 2 3 4 5 6 7 8 9 10 11 12 13 14 15 16 17 18 19 20 21 22 23 24 25 26 27 28 29 30 31 32 33 34 35 36 37 38 39 40 41 42 43 44 45 46 47 48 49 50
000
ASUS41 KCTP 291710
RWRCTP

REGIONAL WEATHER ROUNDUP
NATIONAL WEATHER SERVICE STATE COLLEGE PA
100 PM EDT SAT APR 29 2017

Note: "fair" indicates few or no clouds below 12,000 feet with no
significant weather and/or obstructions to visibility.

* = STATION THAT DOES NOT REPORT PRECIPITATION /E.G. RAIN...SNOW...ETC/
    THUNDER OR FOG.

PAZ002>004-007>009-013>016-020>023-029>032-291800-
WESTERN PENNSYLVANIA

CITY           SKY/WX    TMP DP  RH WIND       PRES   REMARKS
ERIE           CLOUDY    52  51  97 W6        30.16R FOG
MEADVILLE      LGT RAIN  53  52  96 N5        30.16R FOG
FRANKLIN*      CLOUDY    55  52  88 NW5       30.16S
NEW CASTLE     TSTM      57  56  96 W6        30.20R
BEAVER COUNTY  TSTM      59  55  88 W6        30.19R
BUTLER*        CLOUDY    63  59  88 W9        30.19R
PITTSBURGH INT TSTM      65  63  93 W9        30.18R FOG
PITTSBURGH     TSTM      69  60  73 W8        30.15R
INDIANA*       SUNNY     70  63  78 W8G16     30.14R
LATROBE        CLOUDY    72  63  73 W10       30.13R
WASHINGTON CO* CLOUDY    66  61  82 W13       30.20R THUNDER
$$

PAZ004>006-010>012-017>019-024>028-033>037-041-042-045-046-049>053-291800-
CENTRAL PENNSYLVANIA

CITY           SKY/WX    TMP DP  RH WIND       PRES   REMARKS
BRADFORD       CLOUDY    58  55  90 VRB5      30.12R
DUBOIS         CLOUDY    62  57  83 W16G23    30.13R
CLEARFIELD     CLOUDY    70  61  73 W10       30.10R
JOHNSTOWN      CLOUDY    72  58  61 W15       30.13R
ALTOONA        CLOUDY    78  61  55 SW6       30.08F
STATE COLLEGE  MOSUNNY   73  61  64 W13G18    30.07R
WILLIAMSPORT   PTSUNNY   68  59  73 W6        30.03R
SELINSGROVE    PTSUNNY   73  65  75 CALM      30.03S
FT INDIANTOWN  CLOUDY    78  65  63 SW12      30.02S
CAPITAL CITY   CLOUDY    79  62  56 W10       30.04R
HARRISBURG     CLOUDY    76  66  71 NW6       30.03R
YORK           CLOUDY    80  64  58 W7G17     30.04R
$$

PAZ038>040-043-044-047-048-054-055-060>062-067>071-291800-
EASTERN PENNSYLVANIA

CITY           SKY/WX    TMP DP  RH WIND       PRES   REMARKS
SCRANTON       CLOUDY    71  61  70 W6        30.01R
MOUNT POCONO   CLOUDY    69  60  73 W13G21    30.02F
ALLENTOWN      CLOUDY    78  63  59 W12       30.00F
QUAKERTOWN*    PTSUNNY   77  64  65 W6        30.02R
READING        MOSUNNY   80  63  55 W18G26    30.01R
LANCASTER      CLOUDY    79  67  66 W10       30.03R
COATESVILLE    MOSUNNY   79  63  57 W9        30.04R
POTTSTOWN      CLOUDY    80  63  55 W8        30.01S
BLUE BELL      CLOUDY    79  63  57 W9        30.01S
DOYLESTOWN     CLOUDY    80  65  59 W8        29.98F
WILLOW GROVE   NOT AVBL
NORTH PHILA    CLOUDY    82  65  56 W9        29.99F
PHILADELPHIA   CLOUDY    81  62  52 SW14      29.98F
$$




USA.gov is the U.S. government's official web portal to all federal, state and local government web resources and services.